Regional Weather Roundup
Issued by NWS

Home | Current Version | Previous Version | Text Only | Print | Product List | Glossary Off
Versions: 1 2 3 4 5 6 7 8 9 10 11 12 13 14 15 16 17 18 19 20 21 22 23 24 25 26 27 28 29 30 31 32 33 34 35 36 37 38 39 40 41 42 43 44 45 46 47 48 49 50

000
ASUS43 KDTX 201110
RWRMI
MICHIGAN HOURLY REGIONAL WEATHER ROUNDUP
NATIONAL WEATHER SERVICE DETROIT/PONTIAC MI
ISSUED BY NATIONAL WEATHER SERVICE GRAND RAPIDS MI
700 AM EDT SUN MAY 20 2018

NOTE: "FAIR" INDICATES FEW OR NO CLOUDS BELOW 12,000 FEET WITH NO
SIGNIFICANT WEATHER AND/OR OBSTRUCTION TO VISIBILITY.

MIZ047>049-052>055-059>063-066>070-074>076-081>083-201200-
SOUTHEAST LOWER MICHIGAN

CITY           SKY/WX    TMP DP  RH WIND       PRES   REMARKS
ADRIAN         CLOUDY    59  56  89 N6        30.07R
ALMA           FAIR      48  46  90 NW6       30.09R
ANN ARBOR      CLOUDY    58  56  93 NW6       30.06R
BAD AXE        CLOUDY    50  48  95 N6        30.07S
DETROIT CITY   CLOUDY    57  55  93 CALM      30.06R
DETROIT        CLOUDY    61  55  81 N8        30.06R
FLINT          CLOUDY    54  53  97 N8        30.07R
GROSSE ILE     CLOUDY    56  55  95 E6        30.05R FOG
HILLSDALE      CLOUDY    55  54  94 N3        30.07R
HOWELL         CLOUDY    55  53  93 CALM      30.07R

CITY           SKY/WX    TMP DP  RH WIND       PRES   REMARKS
JACKSON        CLOUDY    57  54  89 NW6       30.08R
LANSING        CLOUDY    54  52  93 CALM      30.08R
MASON          CLOUDY    54  51  90 NW5       30.08R
MONROE         CLOUDY    60  58  93 W8        30.05R
MT. CLEMENS    MOCLDY    56  56 100 CALM        N/A
PONTIAC        CLOUDY    57  55  93 N6        30.05R
PORT HOPE        N/A     48  46  93 NW12G21   30.05R
PORT HURON     FOG       50  48  93 CALM      30.07R VSB 1
TRI CITIES     MOCLDY    49  44  83 N7        30.10R
YPSILANTI      LGT RAIN  61  57  87 N9        30.06R FOG
$$
MIZ043>046-050>051-056>058-064>065-071>073-077>080-201200-
SOUTHWEST LOWER MICHIGAN

CITY           SKY/WX    TMP DP  RH WIND       PRES   REMARKS
BATTLE CREEK   CLOUDY    57  52  83 NE7       30.08R
BENTON HARBOR  CLOUDY    49  47  93 NW3       30.10R
BIG RAPIDS     FAIR      45  42  88 NW5       30.11R
COLDWATER      CLOUDY    56  54  92 NE5       30.08R
HOLLAND        CLOUDY    52  49  89 N7        30.09R
GRAND RAPIDS   MOCLDY    53  49  86 N7        30.09R
KALAMAZOO      CLOUDY    57  53  86 NE6       30.08R
MARSHALL       CLOUDY    55  54  95 CALM      30.08R
MOUNT PLEASANT FAIR      47  43  87 NW3       30.09R
MUSKEGON       CLOUDY    50  42  74 NE6       30.11R
STURGIS        CLOUDY    56  54  92 NE5       30.07R
$$
MIZ016>042-201200-
NORTHERN LOWER MICHIGAN

CITY           SKY/WX    TMP DP  RH WIND       PRES   REMARKS
ALPENA         CLOUDY    47  44  90 NW7       30.11S
BEAVER ISLAND  FAIR      41  38  87 N3        30.16R
BELLAIRE       CLOUDY    42  39  87 CALM      30.16R
CADILLAC       CLOUDY    39  39  99 N8        30.10S WCI  34
CHARLEVOIX     FAIR      40  40 100 N3        30.19R
GAYLORD        CLOUDY    40  40 100 CALM      30.12R
HOUGHTON LAKE  CLOUDY    42  39  89 N7        30.12R
MANISTEE       CLOUDY    43  39  86 N5        30.14R
OSCODA         CLOUDY    49  45  85 N10       30.08R
PELLSTON       FAIR      41  39  93 NW6       30.14R
TRAVERSE CITY  CLOUDY    43  38  82 N7        30.16R
LUDINGTON      CLOUDY    42  40  93 N5        30.15R
$$
MIZ007>008-015-201200-
EASTERN UPPER MICHIGAN

CITY           SKY/WX    TMP DP  RH WIND       PRES   REMARKS
KINROSS        FAIR      39  38  96 N6        30.14R WCI  35
MACKINAC ISLAN FAIR      42  42 100 N9        30.13S
NEWBERRY       FAIR      35  34  96 N10       30.16R WCI  28
S. S. MARIE    FAIR      43  39  86 NW5       30.14R
$$
MIZ004>006-011>014-085-201200-
CENTRAL UPPER MICHIGAN

CITY           SKY/WX    TMP DP  RH WIND       PRES   REMARKS
MANISTIQUE     FAIR      37  36  94 N9        30.18R WCI  31
ESCANABA       FAIR      38  34  85 NW6       30.21R WCI  33
SAWYER-GWINN   CLEAR     32  30  93 CALM      30.21S
$$
MIZ001>003-009>011-084-201200-
WESTERN UPPER MICHIGAN

CITY           SKY/WX    TMP DP  RH WIND       PRES   REMARKS
IRON MOUNTAIN  FAIR      39  33  79 N9        30.20R WCI  33
HOUGHTON       FAIR      31  27  85 NW5       30.22S WCI  26
COPPER HARBOR    N/A     34  32  92 CALM      30.23R
IRONWOOD       FAIR      28  27  93 CALM      30.25R FOG
$$

ABBREVIATIONS USED IN REMARKS
   TC - TEMPERATURE IN CELSIUS
  WCI - WIND CHILL INDEX
   HX - HEAT INDEX
  VSB - VISIBILITY





USA.gov is the U.S. government's official web portal to all federal, state and local government web resources and services.